Retour au catalogue

CZ-2C DEB

ActifSSO
NORAD 40264·DEBRIS·🇨🇳 China

Lancé Sep 28, 2014 depuis Jiuquan Satellite Launch Center

Loading…

Prochains Passages (prochaines 24 heures)

TLE

FraisSource: Space-Track

Époque: Sep 14, 2026, 05:11 UTC

1 40264U 14059D   26257.21639512  .00010762  00000-0  87880-3 0  9996
2 40264  97.8121 158.5041 0045553 185.2243 174.8510 14.98767824636486

Suivez CZ-2C DEB en temps réel avec AllMySat

Download on the App Store